TimeCST,TemperatureF,Dew PointF,Humidity,Sea Level PressureIn,VisibilityMPH,Wind Direction,Wind SpeedMPH,Gust SpeedMPH,PrecipitationIn,Events,Conditions,WindDirDegrees,DateUTC
12:53 AM,44.1,36.0,73,30.24,10.0,SSE,16.1,-,N/A,,Clear,160,2013-11-04 06:53:00
1:53 AM,44.1,37.0,76,30.23,10.0,SSE,13.8,-,N/A,,Clear,150,2013-11-04 07:53:00
2:53 AM,44.1,37.0,76,30.22,10.0,SSE,16.1,-,N/A,,Clear,150,2013-11-04 08:53:00
3:53 AM,44.1,36.0,73,30.20,10.0,SSE,15.0,-,N/A,,Clear,160,2013-11-04 09:53:00
4:53 AM,45.0,36.0,71,30.20,10.0,SSE,18.4,23.0,N/A,,Clear,160,2013-11-04 10:53:00
5:53 AM,45.0,36.0,71,30.18,10.0,SSE,16.1,-,N/A,,Clear,160,2013-11-04 11:53:00
6:53 AM,45.0,35.1,68,30.18,10.0,SSE,16.1,-,N/A,,Clear,160,2013-11-04 12:53:00
7:53 AM,45.0,35.1,68,30.18,10.0,SSE,20.7,25.3,N/A,,Clear,160,2013-11-04 13:53:00
8:53 AM,46.9,36.0,66,30.16,10.0,SSE,21.9,-,N/A,,Clear,160,2013-11-04 14:53:00
9:53 AM,48.9,36.0,61,30.14,10.0,South,21.9,27.6,N/A,,Clear,170,2013-11-04 15:53:00
10:53 AM,50.0,36.0,59,30.13,10.0,South,19.6,26.5,N/A,,Clear,180,2013-11-04 16:53:00
11:53 AM,50.0,35.1,57,30.10,10.0,South,20.7,28.8,N/A,,Partly Cloudy,170,2013-11-04 17:53:00
12:53 PM,50.0,36.0,59,30.07,10.0,South,18.4,26.5,N/A,,Mostly Cloudy,170,2013-11-04 18:53:00
4:00 PM,-9999,-9999,N/A,-9999,-9999.0,North,-9999.0,-,N/A,,Unknown,0,2013-11-04 22:00:00
4:53 PM,51.1,37.9,61,30.05,10.0,South,8.1,-,N/A,,Overcast,180,2013-11-04 22:53:00
5:53 PM,52.0,39.0,61,30.07,10.0,SSW,9.2,-,N/A,,Overcast,200,2013-11-04 23:53:00
6:53 PM,52.0,39.9,63,30.08,10.0,SSW,9.2,-,N/A,,Overcast,200,2013-11-05 00:53:00
7:53 PM,51.1,39.9,66,30.09,10.0,SSW,12.7,-,N/A,,Overcast,210,2013-11-05 01:53:00
8:53 PM,51.1,41.0,68,30.11,10.0,SSW,9.2,-,N/A,,Overcast,210,2013-11-05 02:53:00
9:53 PM,50.0,41.0,71,30.13,10.0,SSW,6.9,-,N/A,,Overcast,210,2013-11-05 03:53:00
10:53 PM,50.0,41.0,71,30.13,10.0,SSW,8.1,-,N/A,,Overcast,210,2013-11-05 04:53:00
11:40 PM,50.0,42.1,74,30.14,10.0,SW,6.9,-,N/A,,Overcast,220,2013-11-05 05:40:00
11:53 PM,50.0,42.1,74,30.15,10.0,WSW,6.9,-,N/A,,Overcast,240,2013-11-05 05:53:00